Back to catalog

STARLINK-38117

AliveCommunicationsVLEO
NORAD 100006·PAYLOAD·🇺🇸 United States

Launched Jul 14, 2026 from Vandenberg Space Force Base

Loading…

Next Passes (next 24 hours)

TLE

FreshSource: Space-Track

Epoch: Sep 14, 2026, 06:52 UTC

1 A0006U 26160F   26257.28638267  .00140074  00000-0  82568-3 0  9993
2 A0006  70.0008 212.4993 0003451 270.3883  89.6921 15.77615545 11011

Track STARLINK-38117 in real time with AllMySat

Download on the App Store